Time,TemperatureF,DewpointF,PressureIn,WindDirection,WindDirectionDegrees,WindSpeedMPH,WindSpeedGustMPH,Humidity,HourlyPrecipIn,Conditions,Clouds,dailyrainin,SoftwareType,DateUTC
2013-04-19 00:03:00,60.0,60.0,29.41,South,176,14.0,0.0,100,0.03,,,-99.99,,2013-04-19 04:03:00,
2013-04-19 00:13:00,60.0,60.0,29.41,South,176,14.0,0.0,100,0.03,,,-99.99,,2013-04-19 04:13:00,
2013-04-19 00:23:00,60.0,60.0,29.42,South,179,18.0,0.0,100,0.03,,,-99.99,,2013-04-19 04:23:00,
2013-04-19 00:33:00,60.0,60.0,29.43,South,180,16.0,0.0,99,0.03,,,-99.99,,2013-04-19 04:33:00,
2013-04-19 00:43:00,60.0,60.0,29.43,South,180,16.0,0.0,99,0.03,,,-99.99,,2013-04-19 04:43:00,
2013-04-19 00:52:00,56.0,56.0,29.42,South,186,14.0,0.0,100,0.03,,,-99.99,,2013-04-19 04:52:00,
2013-04-19 01:03:00,50.0,50.0,29.48,SSW,197,11.0,0.0,100,0.03,,,-99.99,,2013-04-19 05:03:00,
2013-04-19 01:12:00,50.0,50.0,29.48,SSW,197,11.0,0.0,100,0.03,,,-99.99,,2013-04-19 05:12:00,
2013-04-19 01:22:00,48.0,48.0,29.46,WSW,243,12.0,0.0,100,0.03,,,-99.99,,2013-04-19 05:22:00,
2013-04-19 01:32:00,48.0,48.0,29.46,WSW,243,12.0,0.0,100,0.03,,,-99.99,,2013-04-19 05:32:00,
2013-04-19 01:42:00,48.0,48.0,29.46,WSW,243,12.0,0.0,100,0.03,,,-99.99,,2013-04-19 05:42:00,
2013-04-19 01:52:00,45.0,45.0,29.45,WSW,256,10.0,0.0,100,0.03,,,-99.99,,2013-04-19 05:52:00,
2013-04-19 02:02:00,44.0,44.0,29.47,SW,219,11.0,0.0,100,0.03,,,-99.99,,2013-04-19 06:02:00,
2013-04-19 02:12:00,44.0,44.0,29.47,SW,219,11.0,0.0,100,0.03,,,-99.99,,2013-04-19 06:12:00,
2013-04-19 02:22:00,44.0,44.0,29.47,SW,219,11.0,0.0,100,0.03,,,-99.99,,2013-04-19 06:22:00,
2013-04-19 02:32:00,44.0,44.0,29.47,SW,219,11.0,0.0,100,0.03,,,-99.99,,2013-04-19 06:32:00,
2013-04-19 02:42:00,44.0,44.0,29.47,SW,219,11.0,0.0,100,0.03,,,-99.99,,2013-04-19 06:42:00,
2013-04-19 02:53:00,42.0,42.0,29.45,West,270,10.0,0.0,100,0.03,,,-99.99,,2013-04-19 06:53:00,
2013-04-19 03:02:00,42.0,42.0,29.44,SW,232,8.0,0.0,100,0.03,,,-99.99,,2013-04-19 07:02:00,
2013-04-19 03:12:00,42.0,42.0,29.44,SW,232,8.0,0.0,100,0.03,,,-99.99,,2013-04-19 07:12:00,
2013-04-19 03:21:00,42.0,42.0,29.45,WNW,295,8.0,0.0,100,0.03,,,-99.99,,2013-04-19 07:21:00,
2013-04-19 03:32:00,41.0,41.0,29.45,SSW,194,10.0,0.0,100,0.03,,,-99.99,,2013-04-19 07:32:00,
2013-04-19 03:42:00,41.0,41.0,29.45,SSW,194,10.0,0.0,100,0.03,,,-99.99,,2013-04-19 07:42:00,
2013-04-19 03:52:00,41.0,41.0,29.43,WSW,255,11.0,0.0,100,0.03,,,-99.99,,2013-04-19 07:52:00,
2013-04-19 04:02:00,41.0,41.0,29.42,WSW,257,12.0,0.0,100,0.03,,,-99.99,,2013-04-19 08:02:00,
2013-04-19 04:12:00,41.0,41.0,29.42,WSW,257,12.0,0.0,100,0.03,,,-99.99,,2013-04-19 08:12:00,
2013-04-19 04:22:00,41.0,41.0,29.41,West,266,10.0,0.0,100,0.03,,,-99.99,,2013-04-19 08:22:00,
2013-04-19 04:33:00,40.0,40.0,29.42,SW,217,10.0,0.0,99,0.03,,,-99.99,,2013-04-19 08:33:00,
2013-04-19 04:42:00,40.0,40.0,29.42,SW,217,10.0,0.0,99,0.03,,,-99.99,,2013-04-19 08:42:00,
2013-04-19 04:52:00,40.0,40.0,29.42,SW,233,8.0,0.0,99,0.03,,,-99.99,,2013-04-19 08:52:00,
2013-04-19 05:01:00,40.0,40.0,29.42,WSW,257,10.0,0.0,99,0.03,,,-99.99,,2013-04-19 09:01:00,
2013-04-19 05:12:00,40.0,40.0,29.42,WSW,257,10.0,0.0,99,0.03,,,-99.99,,2013-04-19 09:12:00,
2013-04-19 05:21:00,40.0,40.0,29.41,SSW,203,9.0,0.0,99,0.03,,,-99.99,,2013-04-19 09:21:00,
2013-04-19 05:33:00,40.0,39.0,29.41,SW,231,11.0,0.0,98,0.03,,,-99.99,,2013-04-19 09:33:00,
2013-04-19 05:43:00,40.0,39.0,29.41,SW,231,11.0,0.0,98,0.03,,,-99.99,,2013-04-19 09:43:00,
2013-04-19 05:52:00,39.0,38.0,29.40,West,260,11.0,0.0,97,0.03,,,-99.99,,2013-04-19 09:52:00,
2013-04-19 06:02:00,39.0,38.0,29.40,West,260,11.0,0.0,97,0.03,,,-99.99,,2013-04-19 10:02:00,
2013-04-19 06:13:00,39.0,38.0,29.40,West,260,11.0,0.0,97,0.03,,,-99.99,,2013-04-19 10:13:00,
2013-04-19 06:23:00,38.0,37.0,29.42,SW,232,12.0,0.0,98,0.03,,,-99.99,,2013-04-19 10:23:00,
2013-04-19 06:33:00,38.0,37.0,29.41,SW,214,12.0,0.0,98,0.03,,,-99.99,,2013-04-19 10:33:00,
2013-04-19 06:42:00,38.0,37.0,29.41,SW,214,12.0,0.0,98,0.03,,,-99.99,,2013-04-19 10:42:00,
2013-04-19 06:52:00,38.0,37.0,29.41,SW,236,12.0,0.0,97,0.03,,,-99.99,,2013-04-19 10:52:00,
2013-04-19 07:03:00,37.0,36.0,29.41,SSW,195,12.0,0.0,96,0.03,,,-99.99,,2013-04-19 11:03:00,
2013-04-19 07:11:00,37.0,36.0,29.41,SSW,195,12.0,0.0,96,0.03,,,-99.99,,2013-04-19 11:11:00,
2013-04-19 07:22:00,37.0,36.0,29.41,SW,218,12.0,0.0,95,0.03,,,-99.99,,2013-04-19 11:22:00,
2013-04-19 07:32:00,37.0,36.0,29.41,SSW,197,9.0,0.0,95,0.03,,,-99.99,,2013-04-19 11:32:00,
2013-04-19 07:42:00,37.0,36.0,29.41,SSW,197,9.0,0.0,95,0.03,,,-99.99,,2013-04-19 11:42:00,
2013-04-19 07:52:00,37.0,35.0,29.41,SW,215,11.0,0.0,94,0.03,,,-99.99,,2013-04-19 11:52:00,
2013-04-19 08:03:00,37.0,35.0,29.41,SW,219,12.0,0.0,92,0.03,,,-99.99,,2013-04-19 12:03:00,
2013-04-19 08:12:00,37.0,35.0,29.41,SW,219,12.0,0.0,92,0.03,,,-99.99,,2013-04-19 12:12:00,
2013-04-19 08:22:00,38.0,36.0,29.41,SW,231,12.0,0.0,92,0.03,,,-99.99,,2013-04-19 12:22:00,
2013-04-19 08:32:00,38.0,36.0,29.41,SW,231,12.0,0.0,92,0.03,,,-99.99,,2013-04-19 12:32:00,
2013-04-19 08:42:00,38.0,36.0,29.41,SW,231,12.0,0.0,92,0.03,,,-99.99,,2013-04-19 12:42:00,
2013-04-19 08:53:00,38.0,36.0,29.41,SW,219,9.0,0.0,91,0.03,,,-99.99,,2013-04-19 12:53:00,
2013-04-19 09:01:00,38.0,36.0,29.41,SW,219,9.0,0.0,91,0.03,,,-99.99,,2013-04-19 13:01:00,
2013-04-19 09:11:00,38.0,36.0,29.41,SW,219,9.0,0.0,91,0.03,,,-99.99,,2013-04-19 13:11:00,
2013-04-19 09:22:00,38.0,36.0,29.41,SSW,205,13.0,0.0,92,0.03,,,-99.99,,2013-04-19 13:22:00,
2013-04-19 09:32:00,38.0,36.0,29.41,SW,217,10.0,0.0,92,0.03,,,-99.99,,2013-04-19 13:32:00,
2013-04-19 09:42:00,38.0,36.0,29.41,SW,217,10.0,0.0,92,0.03,,,-99.99,,2013-04-19 13:42:00,
2013-04-19 09:52:00,37.0,35.0,29.41,WSW,240,12.0,0.0,93,0.03,,,-99.99,,2013-04-19 13:52:00,
2013-04-19 10:02:00,37.0,34.0,29.40,WSW,252,15.0,0.0,90,0.03,,,-99.99,,2013-04-19 14:02:00,
2013-04-19 10:11:00,37.0,34.0,29.40,WSW,252,15.0,0.0,90,0.03,,,-99.99,,2013-04-19 14:11:00,
2013-04-19 10:22:00,37.0,33.0,29.41,SW,215,15.0,0.0,86,0.03,,,-99.99,,2013-04-19 14:22:00,
2013-04-19 10:32:00,37.0,33.0,29.40,SSW,204,14.0,0.0,85,0.03,,,-99.99,,2013-04-19 14:32:00,
2013-04-19 10:43:00,37.0,33.0,29.40,SSW,204,14.0,0.0,85,0.03,,,-99.99,,2013-04-19 14:43:00,
2013-04-19 10:52:00,38.0,34.0,29.41,SW,233,13.0,0.0,87,0.03,,,-99.99,,2013-04-19 14:52:00,
2013-04-19 11:02:00,38.0,35.0,29.41,South,184,11.0,0.0,88,0.03,,,-99.99,,2013-04-19 15:02:00,
2013-04-19 11:12:00,38.0,35.0,29.41,South,184,11.0,0.0,88,0.03,,,-99.99,,2013-04-19 15:12:00,
2013-04-19 11:22:00,38.0,35.0,29.41,South,184,11.0,0.0,88,0.03,,,-99.99,,2013-04-19 15:22:00,
2013-04-19 11:33:00,38.0,35.0,29.42,WSW,256,15.0,0.0,88,0.03,,,-99.99,,2013-04-19 15:33:00,
2013-04-19 11:43:00,38.0,35.0,29.42,WSW,256,15.0,0.0,88,0.03,,,-99.99,,2013-04-19 15:43:00,
2013-04-19 11:52:00,37.0,35.0,29.43,West,276,14.0,0.0,91,0.03,,,-99.99,,2013-04-19 15:52:00,
2013-04-19 12:03:00,37.0,35.0,29.43,West,276,14.0,0.0,91,0.03,,,-99.99,,2013-04-19 16:03:00,
2013-04-19 12:13:00,37.0,35.0,29.43,West,276,14.0,0.0,91,0.03,,,-99.99,,2013-04-19 16:13:00,
2013-04-19 12:23:00,38.0,36.0,29.43,SW,232,15.0,0.0,91,0.03,,,-99.99,,2013-04-19 16:23:00,
2013-04-19 12:33:00,38.0,35.0,29.43,SSW,198,22.0,0.0,88,0.03,,,-99.99,,2013-04-19 16:33:00,
2013-04-19 12:42:00,38.0,35.0,29.43,SSW,198,22.0,0.0,88,0.03,,,-99.99,,2013-04-19 16:42:00,
2013-04-19 12:52:00,39.0,35.0,29.44,SW,229,16.0,0.0,85,0.03,,,-99.99,,2013-04-19 16:52:00,
2013-04-19 13:02:00,39.0,35.0,29.44,WSW,240,16.0,0.0,86,0.03,,,-99.99,,2013-04-19 17:02:00,
2013-04-19 13:12:00,39.0,35.0,29.44,WSW,240,16.0,0.0,86,0.03,,,-99.99,,2013-04-19 17:12:00,
2013-04-19 13:22:00,38.0,35.0,29.44,SW,225,20.0,0.0,88,0.03,,,-99.99,,2013-04-19 17:22:00,
2013-04-19 13:33:00,38.0,36.0,29.44,SW,225,14.0,0.0,91,0.03,,,-99.99,,2013-04-19 17:33:00,
2013-04-19 13:43:00,38.0,36.0,29.44,SW,225,14.0,0.0,91,0.03,,,-99.99,,2013-04-19 17:43:00,
2013-04-19 13:52:00,36.0,36.0,29.45,SSW,211,10.0,0.0,100,0.03,,,-99.99,,2013-04-19 17:52:00,
2013-04-19 14:02:00,39.0,37.0,29.44,West,262,14.0,0.0,94,0.03,,,-99.99,,2013-04-19 18:02:00,
2013-04-19 14:13:00,39.0,37.0,29.44,West,262,14.0,0.0,94,0.03,,,-99.99,,2013-04-19 18:13:00,
2013-04-19 14:23:00,39.0,37.0,29.45,SSW,203,17.0,0.0,91,0.03,,,-99.99,,2013-04-19 18:23:00,
2013-04-19 14:33:00,39.0,36.0,29.45,WSW,250,15.0,0.0,90,0.03,,,-99.99,,2013-04-19 18:33:00,
2013-04-19 14:43:00,39.0,36.0,29.45,WSW,250,15.0,0.0,90,0.03,,,-99.99,,2013-04-19 18:43:00,
2013-04-19 14:52:00,39.0,34.0,29.46,SW,219,14.0,0.0,83,0.03,,,-99.99,,2013-04-19 18:52:00,
2013-04-19 15:02:00,39.0,35.0,29.47,WSW,253,16.0,0.0,87,0.03,,,-99.99,,2013-04-19 19:02:00,
2013-04-19 15:11:00,39.0,35.0,29.47,WSW,253,16.0,0.0,87,0.03,,,-99.99,,2013-04-19 19:11:00,
2013-04-19 15:21:00,39.0,36.0,29.47,WSW,256,11.0,0.0,90,0.03,,,-99.99,,2013-04-19 19:21:00,
2013-04-19 15:32:00,39.0,35.0,29.48,WSW,256,17.0,0.0,85,0.03,,,-99.99,,2013-04-19 19:32:00,
2013-04-19 15:42:00,39.0,35.0,29.48,WSW,256,17.0,0.0,85,0.03,,,-99.99,,2013-04-19 19:42:00,
2013-04-19 15:52:00,38.0,36.0,29.49,WSW,249,12.0,0.0,92,0.03,,,-99.99,,2013-04-19 19:52:00,
2013-04-19 16:02:00,38.0,37.0,29.50,WSW,253,13.0,0.0,97,0.03,,,-99.99,,2013-04-19 20:02:00,
2013-04-19 16:11:00,38.0,37.0,29.50,WSW,253,13.0,0.0,97,0.03,,,-99.99,,2013-04-19 20:11:00,
2013-04-19 16:22:00,38.0,37.0,29.50,WSW,253,13.0,0.0,97,0.03,,,-99.99,,2013-04-19 20:22:00,
2013-04-19 16:32:00,38.0,36.0,29.50,WSW,257,17.0,0.0,94,0.03,,,-99.99,,2013-04-19 20:32:00,
2013-04-19 16:42:00,38.0,36.0,29.50,WSW,257,17.0,0.0,94,0.03,,,-99.99,,2013-04-19 20:42:00,
2013-04-19 16:52:00,38.0,36.0,29.52,West,260,11.0,0.0,93,0.03,,,-99.99,,2013-04-19 20:52:00,
2013-04-19 17:01:00,38.0,36.0,29.52,SW,215,14.0,0.0,94,0.03,,,-99.99,,2013-04-19 21:01:00,
2013-04-19 17:11:00,38.0,36.0,29.52,SW,215,14.0,0.0,94,0.03,,,-99.99,,2013-04-19 21:11:00,
2013-04-19 17:21:00,38.0,35.0,29.53,SW,235,11.0,0.0,90,0.03,,,-99.99,,2013-04-19 21:21:00,
2013-04-19 17:32:00,39.0,36.0,29.54,WSW,250,14.0,0.0,90,0.03,,,-99.99,,2013-04-19 21:32:00,
2013-04-19 17:43:00,39.0,36.0,29.54,WSW,250,14.0,0.0,90,0.03,,,-99.99,,2013-04-19 21:43:00,
2013-04-19 17:52:00,39.0,36.0,29.54,WSW,250,14.0,0.0,90,0.03,,,-99.99,,2013-04-19 21:52:00,
2013-04-19 18:02:00,37.0,37.0,29.57,WSW,248,15.0,0.0,99,0.03,,,-99.99,,2013-04-19 22:02:00,
2013-04-19 18:12:00,37.0,37.0,29.57,WSW,248,15.0,0.0,99,0.03,,,-99.99,,2013-04-19 22:12:00,
2013-04-19 18:23:00,37.0,36.0,29.57,WSW,255,9.0,0.0,98,0.03,,,-99.99,,2013-04-19 22:23:00,
2013-04-19 18:33:00,36.0,35.0,29.58,WSW,246,14.0,0.0,95,0.03,,,-99.99,,2013-04-19 22:33:00,
2013-04-19 18:42:00,36.0,35.0,29.58,WSW,246,14.0,0.0,95,0.03,,,-99.99,,2013-04-19 22:42:00,
2013-04-19 18:52:00,37.0,35.0,29.59,WSW,249,11.0,0.0,94,0.03,,,-99.99,,2013-04-19 22:52:00,
2013-04-19 19:03:00,37.0,35.0,29.60,NW,314,11.0,0.0,91,0.03,,,-99.99,,2013-04-19 23:03:00,
2013-04-19 19:11:00,37.0,35.0,29.60,NW,314,11.0,0.0,91,0.03,,,-99.99,,2013-04-19 23:11:00,
2013-04-19 19:22:00,37.0,35.0,29.61,WSW,253,10.0,0.0,91,0.03,,,-99.99,,2013-04-19 23:22:00,
2013-04-19 19:32:00,37.0,35.0,29.62,WSW,243,10.0,0.0,91,0.03,,,-99.99,,2013-04-19 23:32:00,
2013-04-19 19:42:00,37.0,35.0,29.62,WSW,243,10.0,0.0,91,0.03,,,-99.99,,2013-04-19 23:42:00,
2013-04-19 19:53:00,37.0,35.0,29.62,West,262,12.0,0.0,91,0.03,,,-99.99,,2013-04-19 23:53:00,
2013-04-19 20:02:00,37.0,35.0,29.63,WNW,288,9.0,0.0,91,0.03,,,-99.99,,2013-04-20 00:02:00,
2013-04-19 20:12:00,37.0,35.0,29.63,WNW,288,9.0,0.0,91,0.03,,,-99.99,,2013-04-20 00:12:00,
2013-04-19 20:22:00,37.0,34.0,29.64,West,273,9.0,0.0,90,0.03,,,-99.99,,2013-04-20 00:22:00,
2013-04-19 20:32:00,37.0,34.0,29.64,WNW,290,8.0,0.0,90,0.03,,,-99.99,,2013-04-20 00:32:00,
2013-04-19 20:42:00,37.0,34.0,29.64,WNW,290,8.0,0.0,90,0.03,,,-99.99,,2013-04-20 00:42:00,
2013-04-19 20:52:00,37.0,34.0,29.65,NW,318,9.0,0.0,87,0.03,,,-99.99,,2013-04-20 00:52:00,
2013-04-19 21:01:00,37.0,32.0,29.66,WNW,302,9.0,0.0,82,0.03,,,-99.99,,2013-04-20 01:01:00,
2013-04-19 21:11:00,37.0,32.0,29.66,WNW,302,9.0,0.0,82,0.03,,,-99.99,,2013-04-20 01:11:00,
2013-04-19 21:21:00,37.0,32.0,29.67,WNW,295,10.0,0.0,82,0.03,,,-99.99,,2013-04-20 01:21:00,
2013-04-19 21:32:00,35.0,33.0,29.67,NW,308,12.0,0.0,92,0.03,,,-99.99,,2013-04-20 01:32:00,
2013-04-19 21:42:00,35.0,33.0,29.67,NW,308,12.0,0.0,92,0.03,,,-99.99,,2013-04-20 01:42:00,
2013-04-19 21:52:00,36.0,29.0,29.68,West,281,12.0,0.0,77,0.03,,,-99.99,,2013-04-20 01:52:00,
2013-04-19 22:02:00,36.0,30.0,29.70,West,269,9.0,0.0,79,0.03,,,-99.99,,2013-04-20 02:02:00,
2013-04-19 22:11:00,36.0,30.0,29.70,West,269,9.0,0.0,79,0.03,,,-99.99,,2013-04-20 02:11:00,
2013-04-19 22:22:00,36.0,31.0,29.70,WNW,295,8.0,0.0,82,0.03,,,-99.99,,2013-04-20 02:22:00,
2013-04-19 22:32:00,36.0,32.0,29.71,WNW,285,6.0,0.0,84,0.03,,,-99.99,,2013-04-20 02:32:00,
2013-04-19 22:42:00,36.0,32.0,29.71,WNW,285,6.0,0.0,84,0.03,,,-99.99,,2013-04-20 02:42:00,
2013-04-19 22:52:00,36.0,31.0,29.72,WNW,284,9.0,0.0,82,0.03,,,-99.99,,2013-04-20 02:52:00,
2013-04-19 23:01:00,35.0,29.0,29.72,West,281,10.0,0.0,79,0.03,,,-99.99,,2013-04-20 03:01:00,
2013-04-19 23:11:00,35.0,29.0,29.72,West,281,10.0,0.0,79,0.03,,,-99.99,,2013-04-20 03:11:00,
2013-04-19 23:21:00,35.0,30.0,29.73,WNW,294,10.0,0.0,81,0.03,,,-99.99,,2013-04-20 03:21:00,
2013-04-19 23:33:00,35.0,30.0,29.73,NW,305,9.0,0.0,82,0.03,,,-99.99,,2013-04-20 03:33:00,
2013-04-19 23:43:00,35.0,30.0,29.73,NW,305,9.0,0.0,82,0.03,,,-99.99,,2013-04-20 03:43:00,
2013-04-19 23:53:00,35.0,28.0,29.74,WNW,295,12.0,0.0,76,0.03,,,-99.99,,2013-04-20 03:53:00,